QPF
0.00 0.00 0.00 0.00 0.00 0.00 0.00 0.00 0.00 0.00 0.00 0.00 0.00 0.00 0.00 0.00 0.00 0.00 0.00 0.00 0.00 0.00 0.00 0.00 0.00 0.00 0.00 0.00 0.00 0.00 0.00 0.00 0.00 0.00 0.00 0.00 0.00 0.00 0.01 0.00 0.00 0.01 0.00 0.00 0.00
0.00 0.00 0.00 0.00 0.00 0.00 0.00 0.00 0.00 0.00 0.00 0.00 0.00 0.00 0.00 0.00 0.00 0.00 0.00 0.00 0.00 0.00 0.00 0.00 0.00 0.00 0.00 0.00 0.00 0.00 0.00 0.00 0.00 0.00 0.00 0.00 0.00 0.00 0.00 0.00 0.00 0.00 0.00 0.00 0.00
0.00 0.00 0.00 0.00 0.00 0.00 0.00 0.00 0.00 0.00 0.00 0.00 0.00 0.00 0.00 0.00 0.00 0.00 0.00 0.00 0.00 0.00 0.00 0.00 0.00 0.00 0.00 0.00 0.00 0.00 0.00 0.00 0.00 0.00 0.00 0.00 0.00 0.00 0.00 0.00 0.00 0.00 0.00 0.00 0.00
0.00 0.00 0.00 0.00 0.00 0.00 0.00 0.00 0.00 0.00 0.00 0.00 0.00 0.00 0.00 0.00 0.00 0.00 0.00 0.00 0.00 0.00 0.00 0.00 0.00 0.00 0.00 0.00 0.00 0.00 0.00 0.00 0.00 0.00 0.00 0.00 0.00 0.00 0.00 0.00 0.00 0.00 0.00 0.00 0.00
0.00 0.00 0.00 0.00 0.00 0.00 0.00 0.00 0.00 0.00 0.00 0.00 0.00 0.00 0.00 0.00 0.00 0.00 0.00 0.00 0.00 0.00 0.00 0.00 0.00 0.00 0.00 0.00 0.00 0.00 0.00 0.00 0.00 0.00 0.00 0.00 0.00 0.00 0.00 0.00 0.00 0.00 0.00 0.00 0.00
0.00 0.00 0.00 0.00 0.00 0.00 0.00 0.00 0.00 0.00 0.00 0.00 0.00 0.00 0.00 0.00 0.00 0.00 0.00 0.00 0.00 0.00 0.00 0.00 0.00 0.00 0.00 0.00 0.00 0.00 0.00 0.00 0.00 0.00 0.00 0.00 0.00 0.00 0.00 0.00 0.00 0.00 0.00 0.00 0.00
0.00 0.00 0.00 0.00 0.00 0.00 0.00 0.00 0.00 0.00 0.00 0.00 0.00 0.00 0.00 0.00 0.00 0.00 0.00 0.00 0.00 0.00 0.00 0.00 0.00 0.00 0.00 0.00 0.00 0.00 0.00 0.00 0.00 0.00 0.00 0.00 0.00 0.00 0.00 0.00 0.00 0.00 0.00 0.00 0.00
0.00 0.00 0.00 0.00 0.00 0.00 0.00 0.00 0.00 0.00 0.00 0.00 0.00 0.00 0.00 0.00 0.00 0.00 0.00 0.00 0.00 0.00 0.00 0.00 0.00 0.00 0.00 0.00 0.00 0.00 0.00 0.00 0.00 0.00 0.00 0.00 0.00 0.00 0.00 0.00 0.00 0.00 0.00 0.00 0.00
0.00 0.00 0.00 0.00 0.00 0.00 0.00 0.00 0.00 0.00 0.00 0.00 0.00 0.00 0.00 0.00 0.00 0.00 0.00 0.00 0.00 0.00 0.00 0.00 0.00 0.00 0.00 0.00 0.00 0.00 0.00 0.00 0.01 0.00 0.00 0.00 0.01 0.00 0.00 0.00 0.00 0.00 0.00 0.00 0.00
0.00 0.00 0.00 0.00 0.00 0.00 0.00 0.00 0.00 0.00 0.00 0.00 0.00 0.00 0.00 0.00 0.00 0.00 0.00 0.00 0.00 0.00 0.00 0.00 0.00 0.00 0.00 0.00 0.00 0.00 0.00 0.00 0.00 0.00 0.00 0.01 0.02 0.00 0.00 0.00 0.00 0.00 0.00 0.00 0.00
0.00 0.00 0.00 0.00 0.00 0.00 0.00 0.00 0.00 0.00 0.00 0.00 0.00 0.00 0.00 0.00 0.00 0.00 0.00 0.00 0.00 0.00 0.00 0.00 0.00 0.00 0.00 0.00 0.00 0.00 0.00 0.00 0.00 0.00 0.00 0.00 0.02 0.00 0.00 0.00 0.00 0.00 0.00 0.00 0.00
0.00 0.00 0.00 0.00 0.00 0.00 0.00 0.00 0.00 0.00 0.00 0.00 0.00 0.00 0.00 0.00 0.00 0.00 0.00 0.00 0.00 0.00 0.00 0.00 0.00 0.00 0.00 0.00 0.00 0.00 0.00 0.00 0.00 0.00 0.00 0.00 0.00 0.00 0.00 0.00 0.00 0.00 0.00 0.00 0.00
0.00 0.00 0.00 0.00 0.00 0.00 0.00 0.00 0.00 0.00 0.00 0.00 0.00 0.00 0.00 0.00 0.00 0.00 0.00 0.00 0.00 0.00 0.00 0.00 0.00 0.00 0.00 0.00 0.00 0.00 0.00 0.00 0.00 0.01 0.00 0.00 0.00 0.00 0.00 0.00 0.00 0.00 0.00 0.00 0.00
0.00 0.00 0.00 0.00 0.00 0.00 0.00 0.00 0.00 0.00 0.00 0.00 0.00 0.00 0.00 0.00 0.00 0.00 0.00 0.00 0.00 0.00 0.00 0.00 0.00 0.00 0.00 0.00 0.00 0.00 0.00 0.00 0.00 0.00 0.01 0.00 0.00 0.00 0.00 0.00 0.00 0.00 0.00 0.00 0.00
0.00 0.00 0.00 0.00 0.00 0.00 0.00 0.00 0.00 0.00 0.00 0.00 0.00 0.00 0.00 0.00 0.00 0.00 0.00 0.00 0.00 0.00 0.00 0.00 0.00 0.00 0.00 0.00 0.00 0.00 0.00 0.00 0.00 0.00 0.00 0.00 0.00 0.00 0.00 0.00 0.00 0.00 0.00 0.00 0.00
0.00 0.00 0.00 0.00 0.00 0.00 0.00 0.00 0.00 0.00 0.00 0.00 0.00 0.00 0.00 0.00 0.00 0.00 0.00 0.00 0.00 0.00 0.00 0.00 0.00 0.00 0.00 0.00 0.00 0.00 0.00 0.00 0.00 0.00 0.00 0.00 0.00 0.00 0.00 0.00 0.00 0.00 0.00 0.00 0.00
0.00 0.00 0.00 0.00 0.00 0.00 0.00 0.00 0.00 0.00 0.00 0.00 0.00 0.00 0.00 0.00 0.00 0.00 0.00 0.00 0.00 0.00 0.00 0.00 0.00 0.00 0.00 0.00 0.00 0.00 0.00 0.00 0.00 0.00 0.00 0.00 0.00 0.00 0.00 0.00 0.00 0.00 0.00 0.00 0.00
0.00 0.00 0.00 0.00 0.00 0.00 0.00 0.00 0.00 0.00 0.00 0.00 0.00 0.00 0.00 0.00 0.00 0.00 0.00 0.00 0.00 0.00 0.00 0.00 0.00 0.00 0.00 0.00 0.00 0.00 0.00 0.00 0.00 0.00 0.00 0.00 0.00 0.00 0.00 0.00 0.00 0.00 0.00 0.00 0.00
0.00 0.00 0.00 0.00 0.00 0.00 0.00 0.00 0.00 0.00 0.00 0.00 0.00 0.00 0.00 0.00 0.00 0.00 0.00 0.00 0.00 0.00 0.00 0.00 0.00 0.00 0.00 0.00 0.00 0.00 0.00 0.00 0.00 0.00 0.00 0.00 0.00 0.00 0.00 0.00 0.00 0.00 0.00 0.00 0.00
0.00 0.00 0.00 0.00 0.00 0.00 0.00 0.00 0.00 0.00 0.00 0.00 0.00 0.00 0.00 0.00 0.00 0.00 0.00 0.00 0.00 0.00 0.00 0.00 0.00 0.00 0.00 0.00 0.00 0.00 0.00 0.00 0.00 0.00 0.00 0.00 0.00 0.00 0.00 0.00 0.00 0.00 0.00 0.00 0.00
0.00 0.00 0.00 0.00 0.00 0.00 0.00 0.00 0.00 0.00 0.00 0.00 0.00 0.00 0.00 0.00 0.00 0.00 0.00 0.00 0.00 0.00 0.00 0.00 0.00 0.00 0.00 0.00 0.00 0.00 0.00 0.00 0.00 0.00 0.00 0.00 0.00 0.00 0.00 0.00 0.00 0.00 0.00 0.00 0.00
0.00 0.00 0.00 0.00 0.00 0.00 0.00 0.00 0.00 0.00 0.00 0.00 0.00 0.00 0.00 0.00 0.00 0.00 0.00 0.00 0.00 0.00 0.00 0.00 0.00 0.00 0.00 0.00 0.00 0.00 0.00 0.00 0.00 0.00 0.00 0.00 0.00 0.00 0.00 0.00 0.00 0.00 0.00 0.00 0.00
0.00 0.00 0.00 0.00 0.00 0.00 0.00 0.00 0.00 0.00 0.00 0.00 0.00 0.00 0.00 0.00 0.00 0.00 0.00 0.00 0.00 0.00 0.00 0.00 0.00 0.00 0.00 0.00 0.00 0.00 0.00 0.00 0.00 0.00 0.00 0.00 0.00 0.00 0.00 0.00 0.00 0.00 0.00 0.00 0.00
0.00 0.00 0.00 0.00 0.00 0.00 0.00 0.00 0.00 0.00 0.00 0.00 0.00 0.00 0.00 0.00 0.00 0.00 0.00 0.00 0.00 0.00 0.00 0.00 0.00 0.00 0.00 0.00 0.00 0.00 0.00 0.00 0.00 0.00 0.00 0.00 0.00 0.00 0.00 0.00 0.00 0.00 0.00 0.00 0.00
0.00 0.00 0.00 0.00 0.00 0.00 0.00 0.00 0.00 0.00 0.00 0.00 0.00 0.00 0.00 0.00 0.00 0.00 0.00 0.00 0.00 0.00 0.00 0.00 0.00 0.00 0.00 0.00 0.00 0.00 0.00 0.00 0.00 0.00 0.00 0.00 0.00 0.00 0.00 0.00 0.00 0.00 0.00 0.00 0.00
0.00 0.00 0.00 0.00 0.00 0.00 0.00 0.00 0.00 0.00 0.00 0.00 0.02 0.01 0.00 0.00 0.00 0.00 0.00 0.00 0.00 0.00 0.00 0.00 0.00 0.00 0.00 0.00 0.00 0.00 0.00 0.00 0.00 0.00 0.00 0.00 0.00 0.00 0.00 0.00 0.00 0.00 0.00 0.00 0.00
0.00 0.00 0.00 0.00 0.00 0.00 0.00 0.00 0.00 0.01 0.01 0.02 0.02 0.01 0.00 0.00 0.00 0.00 0.00 0.00 0.00 0.00 0.00 0.00 0.00 0.00 0.00 0.00 0.00 0.00 0.00 0.00 0.00 0.00 0.00 0.00 0.00 0.00 0.00 0.00 0.00 0.00 0.00 0.00 0.00
MSLP
1018.84 1018.31 1017.77 1017.19 1016.58 1015.97 1015.35 1014.73 1014.12 1013.53 1013.02 1012.56 1012.22 1011.88 1011.51 1010.93 1009.98 1008.57 1006.66 1004.16 1004.04 1004.37 1004.76 1003.95 1003.96 1002.89 1002.00 1001.11 1000.73 1000.34 1000.45 998.70 997.74 997.72 998.95 998.83 999.34 1000.17 1001.89 1001.84 1002.87 1003.88 1005.61 1007.59 1008.51
1018.91 1018.41 1017.85 1017.23 1016.60 1015.97 1015.34 1014.67 1014.05 1013.48 1012.87 1012.30 1011.88 1011.48 1011.18 1010.88 1009.19 1006.26 1003.65 1003.51 1003.85 1004.07 1004.12 1003.21 1002.51 1001.98 1001.42 1000.39 999.74 999.27 999.67 997.28 996.50 997.00 998.36 998.06 998.82 1000.01 1000.84 1002.08 1002.95 1004.04 1005.63 1007.25 1007.82
1018.93 1018.33 1017.72 1017.08 1016.45 1015.72 1015.07 1014.48 1013.82 1013.18 1012.64 1012.08 1011.60 1011.23 1010.88 1010.51 1007.55 1003.11 1002.74 1002.41 1003.21 1003.68 1003.36 1002.65 1001.80 1001.28 1000.79 999.95 998.74 997.99 998.37 997.07 996.30 996.86 997.63 997.80 998.88 999.80 1000.51 1001.70 1003.06 1004.39 1005.83 1007.06 1007.76
1019.07 1018.41 1017.72 1017.01 1016.26 1015.55 1014.84 1014.13 1013.52 1012.90 1012.28 1011.83 1011.38 1011.02 1010.73 1009.71 1005.42 1002.63 1002.91 1003.20 1003.52 1003.34 1003.31 1002.39 1001.37 1000.75 1000.21 999.44 998.30 997.63 996.94 996.49 996.43 996.90 996.88 997.43 998.52 999.22 1000.34 1001.17 1002.61 1004.47 1006.07 1006.96 1007.69
1019.15 1018.43 1017.62 1016.87 1016.11 1015.34 1014.56 1013.84 1013.14 1012.46 1011.95 1011.45 1011.17 1010.92 1010.28 1007.63 1003.67 1002.24 1003.11 1003.28 1003.63 1003.49 1002.53 1001.82 1000.84 1000.30 999.59 998.87 997.67 996.99 996.72 996.26 996.34 996.84 996.75 997.54 998.34 999.45 1000.43 1001.48 1002.72 1004.49 1006.00 1006.83 1007.45
1019.20 1018.48 1017.61 1016.69 1015.78 1014.93 1014.17 1013.40 1012.80 1012.17 1011.48 1011.09 1010.80 1010.92 1009.50 1005.62 1001.60 1001.86 1001.98 1002.91 1002.44 1002.60 1001.93 1001.20 1000.25 999.95 999.49 998.55 997.47 996.54 996.46 996.15 996.02 996.70 996.89 997.52 998.80 999.69 1000.82 1001.58 1002.95 1004.44 1005.57 1006.43 1007.06
1019.22 1018.40 1017.63 1016.68 1015.66 1014.68 1013.66 1012.88 1012.30 1011.80 1011.20 1010.74 1010.52 1010.36 1007.53 1003.53 1001.00 1000.94 1001.52 1001.86 1001.44 1001.61 1000.92 1000.60 1000.16 999.84 999.39 998.49 997.77 997.01 996.57 996.17 995.92 996.65 997.36 997.77 999.04 999.58 1000.85 1001.66 1003.12 1004.32 1005.24 1005.97 1006.66
1019.21 1018.32 1017.41 1016.53 1015.49 1014.34 1013.34 1012.31 1011.58 1011.24 1010.85 1010.51 1010.49 1009.56 1005.54 1001.41 1001.21 1001.42 1001.06 1001.07 1001.11 1000.76 1000.52 1000.02 1000.08 999.88 999.27 998.71 997.98 997.13 996.76 995.82 995.60 996.50 997.57 998.11 998.96 1000.17 1001.10 1001.83 1003.04 1004.06 1004.87 1005.54 1006.26
1019.23 1018.38 1017.49 1016.42 1015.36 1014.17 1012.90 1011.55 1010.44 1010.23 1010.19 1010.31 1009.97 1008.02 1003.64 1001.69 1001.11 1000.84 1000.71 1000.51 1000.61 1000.54 1000.64 1000.59 1000.12 999.85 999.62 999.01 998.08 997.02 996.14 995.81 996.71 996.52 997.45 998.60 999.80 1000.37 1001.23 1001.96 1002.76 1003.65 1004.48 1005.11 1005.84
1019.37 1018.49 1017.54 1016.39 1015.20 1013.97 1012.64 1010.36 1008.90 1009.54 1009.44 1008.95 1007.99 1006.46 1002.92 1000.72 999.90 1000.02 1000.46 1000.35 1000.06 1000.31 1000.48 1000.37 1000.12 999.66 999.29 998.48 997.22 996.36 995.81 995.08 996.29 997.04 997.49 999.50 1001.30 1000.90 1000.74 1001.43 1002.36 1003.07 1003.98 1004.66 1005.30
1019.29 1018.49 1017.51 1016.18 1015.00 1013.64 1013.04 1009.12 1008.56 1008.38 1007.21 1006.29 1004.77 1003.13 1001.42 1000.73 1000.35 1000.32 1000.05 1000.26 999.97 999.84 999.76 999.78 999.60 998.38 998.04 997.79 997.01 995.92 995.08 994.94 995.89 996.76 997.33 999.69 1001.44 1001.35 1000.10 1000.31 1001.55 1002.29 1003.25 1004.02 1004.68
1019.36 1018.52 1017.27 1016.01 1014.68 1013.60 1012.58 1010.44 1010.16 1010.16 1007.33 1005.04 1003.36 1002.26 1001.19 1001.38 1000.40 999.57 999.77 999.80 999.71 998.98 999.41 999.16 998.32 997.96 997.76 997.33 996.83 995.82 995.01 994.52 995.61 997.60 998.32 998.57 999.79 999.52 998.92 998.86 999.74 1000.99 1002.11 1002.97 1003.86
1019.32 1018.34 1017.10 1015.86 1014.36 1012.66 1010.87 1010.06 1009.58 1009.22 1007.56 1002.44 1000.73 999.90 999.48 1000.07 999.65 999.17 999.12 999.09 998.67 998.59 998.26 997.84 997.44 997.51 997.06 996.69 996.13 995.40 994.76 994.20 995.76 997.48 997.67 996.70 997.22 997.54 997.92 998.04 998.32 999.33 1000.63 1001.75 1002.58
1019.26 1018.29 1017.33 1015.99 1014.08 1011.94 1010.15 1009.85 1009.29 1009.08 1006.74 1000.86 999.42 998.76 998.87 998.90 998.89 999.02 998.70 998.69 998.49 997.86 997.75 997.48 996.79 996.53 996.32 995.62 995.33 994.52 994.38 994.05 995.17 996.69 998.81 995.48 996.72 997.00 996.56 996.89 997.22 997.75 998.98 1000.28 1001.29
1019.12 1018.20 1017.52 1016.98 1015.16 1011.61 1010.65 1010.07 1009.46 1008.82 1004.68 999.00 998.28 998.50 998.36 998.58 997.08 997.02 998.10 998.06 997.80 997.54 997.45 996.30 996.13 995.57 995.24 994.92 994.76 994.04 993.78 993.77 993.90 995.00 995.82 996.12 996.51 995.23 995.17 995.66 996.37 997.00 997.58 998.74 999.96
1018.82 1017.92 1017.57 1014.38 1013.71 1011.70 1010.68 1010.06 1009.25 1007.68 1002.46 998.56 997.92 997.75 997.89 997.62 997.47 996.97 997.34 997.71 997.64 997.44 997.03 996.19 995.78 995.19 994.47 994.62 994.40 994.42 993.88 993.70 993.88 994.26 995.00 995.88 996.37 994.25 993.85 994.61 995.31 995.94 996.52 997.40 998.78
1018.51 1017.22 1017.07 1015.39 1012.56 1011.35 1010.82 1009.73 1008.20 1005.40 1000.59 999.12 998.01 997.92 998.02 997.65 997.15 996.74 996.79 997.01 996.74 996.80 996.10 995.67 994.96 994.51 994.24 993.92 994.06 993.98 993.83 993.36 993.39 993.40 993.32 993.87 994.64 994.31 993.95 994.72 995.29 996.07 995.43 996.35 997.54
1018.18 1016.23 1014.32 1013.11 1012.17 1011.36 1010.74 1009.51 1007.16 1003.99 1001.66 1000.26 999.57 999.11 998.96 998.87 998.24 997.17 996.76 996.58 996.59 996.20 995.89 994.99 994.31 993.79 993.48 993.17 993.03 993.18 993.31 992.76 992.62 992.74 992.69 992.78 992.97 993.47 994.43 996.22 995.89 997.41 995.30 995.41 996.41
1017.82 1014.38 1011.91 1011.72 1011.56 1011.36 1010.58 1008.52 1006.03 1004.42 1003.30 1002.42 1001.73 1000.92 1000.40 999.68 998.96 998.08 996.88 996.31 995.92 996.10 995.42 994.42 993.56 993.27 992.96 993.00 992.98 992.92 992.84 993.26 992.77 992.49 992.30 991.94 992.19 993.12 996.08 996.12 995.00 994.41 993.50 994.32 995.29
1017.82 1014.60 1011.81 1011.11 1011.23 1011.05 1010.27 1008.36 1006.59 1005.49 1005.26 1005.04 1004.13 1003.34 1002.36 1000.77 999.36 998.38 997.66 996.63 996.02 995.45 995.77 994.56 993.64 992.56 992.46 992.58 992.50 992.41 993.14 993.13 992.37 992.55 991.86 991.24 991.08 991.99 993.78 993.56 993.80 993.29 992.69 993.36 994.16
1016.93 1012.80 1010.64 1011.06 1011.00 1010.50 1009.13 1007.26 1006.71 1007.21 1007.66 1007.55 1006.76 1005.90 1005.12 1003.84 1001.98 999.90 998.12 997.30 996.01 995.62 995.21 995.19 994.49 992.40 991.87 991.39 991.60 992.36 992.12 992.35 992.48 992.34 991.78 991.06 990.21 990.04 990.85 991.25 992.20 992.30 992.17 992.60 993.24
1016.07 1012.35 1010.34 1010.98 1010.52 1008.94 1008.01 1008.09 1008.54 1008.35 1008.60 1008.83 1008.62 1008.07 1007.26 1006.26 1004.44 1002.24 999.85 997.88 997.19 997.40 996.38 995.04 994.37 993.15 991.64 990.87 991.56 991.76 992.05 991.99 991.51 991.54 991.44 990.82 990.31 989.74 989.50 990.26 990.92 991.06 991.29 991.79 992.52
1015.94 1012.53 1010.34 1010.72 1009.77 1008.59 1008.61 1009.20 1009.57 1009.59 1009.60 1009.72 1009.68 1009.31 1008.60 1007.50 1006.28 1004.17 1001.86 999.67 999.27 999.04 998.16 997.91 995.40 993.75 992.04 990.58 990.52 991.02 991.32 991.40 991.49 991.52 990.88 990.70 990.83 991.05 992.20 990.11 990.58 991.05 991.32 992.04 992.71
1016.60 1012.73 1010.74 1010.53 1010.32 1010.39 1010.37 1010.47 1010.23 1010.06 1010.79 1011.28 1011.24 1011.20 1010.27 1008.68 1007.22 1005.37 1003.60 1001.44 1000.58 999.93 999.51 999.36 997.38 995.13 992.16 990.30 989.98 990.42 990.50 990.74 990.79 990.56 990.34 990.29 990.68 991.50 990.86 990.25 990.55 990.96 991.88 992.90 993.01
1017.13 1014.48 1013.85 1012.23 1011.49 1011.54 1011.58 1011.06 1010.51 1010.76 1011.55 1012.13 1011.79 1011.38 1010.94 1010.05 1008.00 1006.01 1004.52 1002.77 1001.40 1000.13 999.65 999.58 998.06 996.16 993.41 991.36 989.89 989.87 990.36 990.28 990.15 990.12 990.19 990.24 990.52 992.16 991.44 992.60 991.83 991.55 992.48 992.93 992.78
1018.24 1016.94 1015.86 1014.50 1013.35 1012.23 1011.23 1011.25 1011.70 1011.34 1011.41 1012.13 1012.56 1012.45 1012.41 1011.87 1010.77 1008.11 1006.24 1003.34 1001.58 1000.27 999.70 998.96 997.88 996.58 994.08 992.02 990.20 988.98 989.52 989.84 989.66 989.98 989.92 990.15 990.84 991.05 991.55 991.60 992.65 992.50 993.01 993.22 993.46
1018.50 1018.33 1017.87 1015.69 1013.93 1012.65 1011.85 1011.10 1011.08 1011.36 1011.48 1012.36 1013.09 1013.08 1012.52 1011.72 1011.36 1010.36 1008.13 1005.14 1002.24 1001.06 1000.36 999.94 998.73 996.98 994.40 992.62 990.47 988.59 988.13 988.96 989.35 989.37 989.58 989.45 990.13 991.30 991.57 991.87 992.63 992.61 993.08 993.23 993.64
Thickness
5710 5714 5718 5722 5726 5730 5735 5740 5745 5751 5756 5760 5764 5768 5773 5780 5789 5804 5812 5838 5844 5846 5845 5849 5847 5853 5860 5857 5868 5870 5825 5836 5845 5844 5830 5865 5854 5861 5855 5845 5842 5838 5822 5813 5815
5705 5709 5712 5717 5722 5726 5731 5737 5742 5747 5752 5758 5762 5767 5771 5776 5791 5811 5842 5847 5847 5847 5842 5840 5839 5850 5842 5853 5862 5851 5814 5849 5882 5878 5854 5873 5864 5856 5847 5837 5832 5830 5829 5822 5821
5701 5704 5708 5713 5718 5723 5729 5734 5739 5745 5750 5754 5759 5765 5769 5774 5794 5827 5848 5853 5849 5848 5848 5850 5854 5849 5837 5855 5861 5864 5834 5871 5884 5884 5877 5871 5862 5865 5848 5830 5832 5819 5819 5819 5817
5694 5698 5703 5708 5713 5719 5724 5731 5736 5742 5748 5752 5757 5761 5765 5775 5778 5838 5843 5843 5843 5848 5842 5842 5845 5836 5832 5836 5867 5851 5875 5884 5885 5885 5885 5873 5872 5860 5853 5848 5851 5837 5827 5821 5815
5687 5692 5697 5702 5708 5714 5720 5726 5733 5740 5745 5750 5754 5756 5764 5777 5798 5839 5836 5837 5838 5837 5836 5836 5836 5837 5830 5846 5864 5863 5872 5887 5889 5883 5887 5881 5865 5857 5851 5859 5858 5843 5828 5822 5819
5679 5683 5689 5696 5703 5710 5715 5722 5728 5735 5742 5747 5751 5751 5763 5768 5832 5838 5842 5833 5839 5834 5836 5842 5843 5851 5840 5847 5853 5879 5877 5881 5890 5879 5882 5869 5860 5860 5855 5863 5850 5839 5830 5827 5822
5668 5674 5679 5686 5694 5702 5711 5718 5724 5730 5736 5742 5746 5750 5767 5785 5834 5841 5837 5831 5842 5838 5835 5848 5854 5844 5848 5841 5867 5869 5856 5872 5881 5876 5869 5878 5846 5846 5860 5861 5844 5837 5834 5831 5827
5657 5662 5669 5676 5684 5694 5703 5713 5721 5725 5730 5735 5738 5747 5765 5821 5828 5825 5831 5829 5839 5846 5845 5854 5855 5844 5842 5858 5853 5850 5857 5843 5880 5877 5874 5870 5828 5851 5862 5854 5840 5839 5836 5833 5830
5646 5650 5656 5665 5673 5683 5694 5707 5718 5722 5725 5728 5734 5746 5764 5815 5805 5821 5827 5818 5827 5835 5840 5845 5843 5832 5835 5822 5822 5843 5827 5844 5838 5881 5870 5861 5831 5850 5860 5852 5842 5840 5838 5835 5831
5634 5638 5644 5653 5663 5673 5684 5704 5717 5715 5721 5727 5738 5739 5771 5783 5811 5820 5824 5822 5816 5818 5814 5819 5819 5811 5817 5816 5797 5823 5836 5860 5837 5862 5869 5838 5808 5842 5860 5854 5845 5845 5841 5837 5833
5625 5629 5634 5646 5654 5665 5673 5701 5706 5708 5721 5725 5740 5754 5772 5792 5808 5801 5815 5806 5810 5805 5787 5809 5793 5794 5815 5830 5842 5850 5861 5859 5863 5874 5869 5831 5800 5819 5860 5863 5849 5848 5843 5840 5838
5616 5620 5628 5639 5648 5656 5664 5676 5674 5675 5690 5720 5738 5752 5769 5776 5770 5794 5811 5788 5787 5784 5797 5791 5783 5819 5833 5838 5836 5844 5848 5865 5870 5849 5852 5850 5828 5839 5868 5869 5867 5858 5851 5848 5845
5608 5613 5622 5632 5643 5656 5669 5668 5676 5678 5668 5726 5745 5754 5765 5770 5767 5779 5797 5792 5787 5782 5789 5784 5809 5829 5827 5826 5827 5840 5841 5861 5847 5839 5852 5878 5863 5856 5869 5878 5879 5876 5869 5862 5856
5601 5607 5614 5624 5641 5656 5663 5668 5671 5671 5653 5711 5730 5747 5757 5766 5757 5785 5796 5790 5780 5779 5789 5791 5822 5816 5817 5822 5837 5827 5863 5870 5855 5821 5769 5885 5816 5843 5866 5869 5879 5881 5877 5871 5868
5596 5603 5608 5612 5625 5648 5653 5660 5665 5661 5645 5729 5727 5757 5753 5745 5770 5778 5797 5786 5770 5782 5786 5791 5801 5806 5809 5824 5844 5840 5870 5868 5875 5850 5838 5838 5821 5854 5872 5862 5869 5881 5885 5884 5881
5594 5600 5602 5624 5628 5642 5650 5655 5656 5636 5650 5719 5729 5724 5729 5744 5752 5770 5772 5785 5792 5780 5786 5797 5820 5820 5826 5839 5847 5858 5856 5862 5865 5857 5811 5829 5827 5849 5867 5876 5879 5887 5892 5893 5888
5593 5601 5601 5609 5626 5637 5641 5641 5629 5632 5711 5707 5718 5720 5716 5719 5734 5750 5751 5751 5753 5743 5753 5784 5794 5820 5832 5822 5841 5841 5833 5810 5809 5817 5815 5865 5836 5856 5881 5888 5887 5878 5896 5898 5896
5590 5602 5612 5617 5622 5627 5626 5620 5611 5659 5679 5706 5707 5707 5696 5707 5714 5730 5739 5738 5762 5767 5760 5761 5762 5802 5827 5822 5822 5828 5830 5814 5786 5804 5829 5872 5836 5853 5880 5870 5862 5846 5897 5904 5900
5585 5605 5619 5619 5616 5615 5607 5604 5625 5647 5662 5664 5672 5670 5678 5697 5706 5712 5725 5737 5757 5765 5751 5764 5774 5819 5826 5834 5833 5822 5811 5849 5835 5853 5838 5858 5869 5876 5854 5854 5879 5876 5904 5902 5904
5576 5591 5607 5611 5608 5603 5593 5596 5619 5637 5636 5636 5631 5649 5649 5676 5692 5707 5711 5739 5746 5768 5778 5778 5767 5813 5823 5834 5836 5829 5844 5811 5830 5792 5798 5847 5859 5854 5855 5875 5876 5889 5908 5907 5908
5576 5595 5608 5603 5600 5589 5585 5605 5611 5605 5602 5599 5605 5614 5626 5637 5661 5676 5703 5733 5755 5760 5778 5779 5770 5792 5822 5807 5806 5810 5813 5827 5840 5837 5813 5814 5853 5909 5892 5897 5883 5896 5914 5914 5914
5574 5583 5602 5592 5575 5590 5591 5585 5576 5582 5585 5583 5588 5592 5600 5612 5627 5647 5669 5710 5737 5732 5732 5776 5771 5762 5787 5832 5835 5828 5818 5828 5814 5812 5840 5844 5843 5910 5917 5914 5911 5914 5919 5922 5922
5566 5580 5595 5585 5567 5577 5576 5565 5561 5558 5559 5559 5562 5573 5584 5594 5598 5627 5652 5687 5696 5702 5712 5723 5742 5750 5771 5816 5830 5811 5823 5833 5842 5846 5832 5824 5836 5884 5882 5904 5913 5908 5911 5913 5916
5553 5563 5574 5569 5565 5553 5543 5538 5538 5546 5537 5537 5538 5544 5556 5575 5598 5611 5633 5669 5676 5690 5694 5708 5720 5730 5760 5794 5823 5802 5816 5830 5835 5821 5832 5841 5851 5865 5882 5897 5906 5900 5905 5906 5912
5541 5546 5540 5537 5538 5532 5526 5527 5526 5518 5519 5512 5517 5527 5532 5540 5572 5595 5625 5649 5669 5682 5692 5698 5696 5728 5769 5799 5830 5819 5811 5821 5822 5837 5827 5849 5856 5850 5872 5870 5877 5895 5898 5901 5912
5521 5518 5518 5517 5518 5519 5522 5512 5497 5503 5502 5495 5490 5495 5499 5516 5538 5565 5585 5625 5648 5672 5681 5702 5699 5726 5746 5786 5807 5819 5820 5820 5829 5838 5846 5858 5851 5880 5887 5896 5875 5876 5888 5892 5900
5514 5503 5493 5501 5507 5509 5509 5511 5504 5502 5503 5493 5482 5479 5486 5508 5523 5542 5567 5602 5636 5644 5655 5667 5691 5713 5729 5770 5793 5797 5821 5819 5829 5845 5847 5837 5866 5870 5871 5876 5877 5877 5890 5889 5895